Regional Weather Roundup
Issued by NWS Cleveland, OH

Home | Current Version | Previous Version | Graphics & Text | Print | Product List | Glossary On
Versions: 1 2 3 4 5 6 7 8 9 10 11 12 13 14 15 16 17 18 19 20 21 22 23 24 25 26 27 28 29 30 31 32 33 34 35 36 37 38 39 40 41 42 43 44 45 46 47 48 49 50
000
ASUS41 KCLE 071000
RWRCLE
OHIO REGIONAL WEATHER ROUNDUP
NATIONAL WEATHER SERVICE WILMINGTON, OH
500 AM EST WED DEC 07 2016

NOTE: "FAIR" INDICATES FEW OR NO CLOUDS BELOW 12,000 FEET WITH NO
SIGNIFICANT WEATHER AND/OR OBSTRUCTIONS TO VISIBILITY.

OHZ001>008-015>018-024>027-034-035-043-044-071100-
   NORTHWEST OHIO

CITY           SKY/WX    TMP DP  RH WIND       PRES   REMARKS
DEFIANCE       FAIR      29  20  69 W7        30.03R WCI  22
FINDLAY        FAIR      29  23  78 W12       30.02R WCI  19
TOLEDO EXPRESS MOCLDY    29  25  85 W13       30.00R WCI  19
TOLEDO EXEC    FAIR      30  24  78 W13       30.01R WCI  20
LIMA           FAIR      27  23  85 W13       30.04R WCI  16
$$

OHZ009>014-019>023-028>033-038-089-071100-
   NORTHEAST OHIO

CITY           SKY/WX    TMP DP  RH WIND       PRES   REMARKS
CLE-HOPKINS    CLOUDY    34  27  75 SW9       30.02R WCI  27
CLE-LAKEFRONT  CLOUDY    35  27  72 SW23G29   29.99R WCI  23
CUY CO. ARPT   NOT AVBL
LORAIN-ELYRIA  MOCLDY    32  25  75 W13       30.00R WCI  22
ASHTABULA      CLOUDY    37  29  72 W12       29.95R
AKRON-CANTON   MOCLDY    34  26  72 W7        29.99R WCI  28
WOOSTER        NOT AVBL
MANSFIELD      FAIR      29  25  85 W8G18     29.99R WCI  21
YOUNGSTOWN     CLOUDY    35  27  72 W6        29.96R
$$

OHZ042-051>053-060>062-070>072-077>081-071100-
  SOUTHWEST OHIO

CITY           SKY/WX    TMP DP  RH WIND       PRES   REMARKS
CINC-COVINGTON MOCLDY    31  27  85 W5        30.10R WCI  26
CINC-LUNKEN    FAIR      34  27  75 W5        30.13R WCI  30
HAMILTON       FAIR      29  24  82 W6        30.11R WCI  23
DAYTON         NOT AVBL
WRIGHT-PAT AFB FAIR      27  25  93 W6        30.07R WCI  20
DAYTON GENERAL FAIR      29  24  82 W5        30.07R WCI  24
WILMINGTON     FAIR      29  26  89 W6        30.07R WCI  23
$$

OHZ036-037-039>041-045>050-054>059-063>069-073>076-082>088-071100-
  CENTRAL AND SOUTHEAST OHIO

CITY           SKY/WX    TMP DP  RH WIND       PRES   REMARKS
COLUMBUS       FAIR      30  28  92 W7        30.05R WCI  23
OSU AIRPORT    FAIR      28  25  88 W7        30.05R WCI  21
BOLTON FIELD   NOT AVBL
RICKENBACK AFB NOT AVBL
NEWARK         FAIR      31  26  82 SW6       30.05R WCI  25
MARION         FAIR      29  24  82 W7        30.03R WCI  22
LANCASTER      FAIR      30  27  88 SW5       30.07R WCI  25
ZANESVILLE     FAIR      32  27  81 W5        30.05R WCI  27
NEW PHILLY     FAIR      34  28  79 W3        30.02R
$$




USA.gov is the U.S. government's official web portal to all federal, state and local government web resources and services.